Montpelier, VT

8:32 PM EST on December 06, 2019 (GMT -0500)
Knapp State

Weather History for KMPV - July, 2019

Change the Weather History Date:

Thursday, July 25, 2019

  Actual Average Record
Temperature  
Mean Temperature 64 °F 67 °F  
Max Temperature 79 °F 79 °F 90 °F (1989)
Min Temperature 51 °F 56 °F 41 °F (1953)
Degree Days  
Heating Degree Days 0 1  
Month to date heating degree days 31  
Since 1 June heating degree days 152  
Since 1 July heating degree days 31  
Cooling Degree Days 0 3  
Month to date cooling degree days 79  
Year to date cooling degree days 142  
Since 1 June cooling degree days 132  
Growing Degree Days 14 (Base 50)    
Moisture  
Dew Point 54 °F    
Average Humidity 85    
Maximum Humidity 100    
Minimum Humidity 45    
Precipitation  
Precipitation 0.00 in 0.14 in 0.76 in (2018)
Month to date precipitation 3.20  
Year to date precipitation 19.91  
Sea Level Pressure  
Sea Level Pressure 30.15 in    
Wind  
Wind Speed 1 mph (NW)    
Max Wind Speed 10 mph    
Max Gust Speed 18 mph    
Visibility 6 miles    
Events Fog    
T = Trace of Precipitation, MM = Missing Value Source: NWS Daily Summary

Daily Weather History Graph

Daily Weather History Graph

Search for Another Location

Airport or City:

Astronomy

Jul. 25, 2019 Rise Set
Actual Time 5:30 AM EDT 8:22 PM EDT
Civil Twilight 4:56 AM EDT 8:56 PM EDT
Nautical Twilight 4:12 AM EDT 9:39 PM EDT
Astronomical Twilight 3:22 AM EDT 10:30 PM EDT
Moon 12:20 AM EDT (7/25) 1:55 PM EDT (7/25)
Length of Visible Light 16h 00m
Length of Day
14h 52m
Last Quarter, 44% of the Moon is Illuminated
Jul 25
Last Quarter
Jul 31
New
Aug 7
First Quarter
Aug 15
Full
Aug 23
Last Quarter

Hourly Weather History & Observations

Time (EDT) Temp. Dew Point Humidity Pressure Visibility Wind Dir Wind Speed Gust Speed Precip Events Conditions
12:51 AM 54.0 °F 52.0 °F 93% 30.11 in 10.0 mi Calm Calm - N/A   Clear
1:51 AM 53.1 °F 52.0 °F 96% 30.11 in 10.0 mi Calm Calm - N/A   Clear
2:51 AM 53.1 °F 52.0 °F 96% 30.11 in 10.0 mi Calm Calm - N/A   Clear
2:58 AM 52.0 °F 50.0 °F 93% 30.11 in 10.0 mi Calm Calm - N/A   Scattered Clouds
3:07 AM 52.0 °F 51.1 °F 97% 30.11 in 10.0 mi Calm Calm - N/A   Mostly Cloudy
3:23 AM 53.1 °F 52.0 °F 96% 30.11 in 1.8 mi Calm Calm - N/A   Overcast
3:30 AM 53.1 °F 52.0 °F 96% 30.11 in 1.0 mi Calm Calm - N/A   Mist
3:39 AM 53.1 °F 52.0 °F 96% 30.11 in 0.2 mi Calm Calm - N/A Fog Fog
3:51 AM 53.1 °F 53.1 °F 100% 30.11 in 0.2 mi Calm Calm - N/A Fog Fog
4:11 AM 52.0 °F 52.0 °F 100% 30.11 in 1.2 mi Calm Calm - N/A   Overcast
4:20 AM 52.0 °F 52.0 °F 100% 30.11 in 0.8 mi Calm Calm - N/A   Mist
4:51 AM 53.1 °F 53.1 °F 100% 30.12 in 0.2 mi Calm Calm - N/A Fog Fog
5:43 AM 51.1 °F 51.1 °F 100% 30.12 in 1.2 mi Calm Calm - N/A   Mostly Cloudy
5:45 AM 51.8 °F 51.8 °F 100% 30.12 in 2.0 mi Calm Calm - N/A   Mostly Cloudy
5:51 AM 51.1 °F 51.1 °F 100% 30.12 in 9.0 mi Calm Calm - N/A   Scattered Clouds
6:03 AM 52.0 °F 51.1 °F 97% 30.13 in 1.8 mi Calm Calm - N/A   Scattered Clouds
6:05 AM 52.0 °F 51.1 °F 97% 30.13 in 0.8 mi Calm Calm - N/A   Mist
6:51 AM 53.1 °F 53.1 °F 100% 30.14 in 0.2 mi Calm Calm - N/A Fog Fog
7:30 AM 54.0 °F 54.0 °F 100% 30.15 in 1.2 mi Calm Calm - N/A   Overcast
7:32 AM 55.0 °F 55.0 °F 100% 30.15 in 2.0 mi Calm Calm - N/A   Overcast
7:39 AM 54.0 °F 54.0 °F 100% 30.15 in 1.8 mi Calm Calm - N/A   Overcast
7:41 AM 55.0 °F 55.0 °F 100% 30.15 in 1.0 mi Calm Calm - N/A   Mist
7:49 AM 55.4 °F 55.4 °F 100% 30.15 in 0.8 mi Calm Calm - N/A   Overcast
7:51 AM 55.0 °F 55.0 °F 100% 30.15 in 1.2 mi NE 3.5 mph - N/A   Overcast
7:57 AM 55.0 °F 55.0 °F 100% 30.15 in 0.8 mi ENE 4.6 mph - N/A   Overcast
8:42 AM 55.9 °F 55.0 °F 97% 30.17 in 1.8 mi Calm Calm - N/A   Overcast
8:49 AM 55.4 °F 55.4 °F 100% 30.17 in 10.0 mi Calm Calm - N/A   Mostly Cloudy
8:51 AM 55.9 °F 55.9 °F 100% 30.18 in 10.0 mi Calm Calm - N/A   Mostly Cloudy
9:05 AM 57.0 °F 57.0 °F 100% 30.17 in 10.0 mi Calm Calm - N/A   Scattered Clouds
9:51 AM 66.0 °F 59.0 °F 78% 30.17 in 10.0 mi Calm Calm - N/A   Clear
10:51 AM 70.0 °F 55.0 °F 59% 30.17 in 10.0 mi Variable 5.8 mph - N/A   Clear
11:51 AM 72.0 °F 53.1 °F 51% 30.16 in 10.0 mi NW 8.1 mph - N/A   Clear
12:51 PM 75.0 °F 57.0 °F 53% 30.16 in 10.0 mi NNW 8.1 mph - N/A   Scattered Clouds
1:51 PM 75.9 °F 55.0 °F 48% 30.15 in 10.0 mi North 9.2 mph - N/A   Clear
2:51 PM 78.1 °F 55.0 °F 45% 30.14 in 10.0 mi NNW 10.4 mph 18.4 mph N/A   Clear
3:51 PM 78.1 °F 55.9 °F 46% 30.14 in 10.0 mi NNW 8.1 mph - N/A   Partly Cloudy
4:51 PM 75.9 °F 55.9 °F 50% 30.15 in 10.0 mi NW 5.8 mph - N/A   Mostly Cloudy
5:51 PM 75.9 °F 55.0 °F 48% 30.15 in 10.0 mi WNW 6.9 mph - N/A   Partly Cloudy
6:51 PM 75.0 °F 55.9 °F 51% 30.17 in 10.0 mi Calm Calm - N/A   Clear
7:51 PM 70.0 °F 57.9 °F 65% 30.18 in 10.0 mi SW 4.6 mph - N/A   Clear
8:51 PM 69.1 °F 57.0 °F 65% 30.19 in 10.0 mi WSW 4.6 mph - N/A   Clear
9:51 PM 64.9 °F 57.9 °F 78% 30.20 in 10.0 mi Calm Calm - N/A   Clear
10:51 PM 62.1 °F 57.0 °F 84% 30.22 in 10.0 mi Calm Calm - N/A   Clear
11:51 PM 60.1 °F 55.9 °F 86% 30.22 in 10.0 mi South 3.5 mph - N/A   Clear